Find Starlink 11591

NORAD ID: 63116 Int'l Des: 2025-039 Owner: SPXS Country: US Constellation: starlink operational
LEOCIRCULAR

当前视图

正在加载3D地球...

About Starlink 11591

Starlink 11591 (NORAD 63116) is a starlink constellation satellite (v2 mini d2c) launched Feb 27, 2025 by SPXS of US. It operates in LEO, CIRCULAR orbit with a mass of 960.00 kg.

关于 Starlink 11591

正在加载描述...

即将过境

Passes for default location (London). Set your location on the main map for personalized predictions.

高度历史

Loading altitude history...

两行轨道根数

1 63116U 25039N 26170.19328500 .00148525 00000-0 11326-2 0 9990
2 63116 43.0012 344.6278 0002194 49.4259 310.6799 15.71003696 75580
Epoch: Jun 19, 2026 • Age: 7 hours

当前状态

高度 360.8 km
速度 7.69 km/s
星下点 -22.17°S, 132.63°W
发射日期 Feb 27, 2025
运行时间 1.3 years
类型 internet

技术详情

分类 Payload
质量 960.00 kg
干质量 910.00 kg
总质量 960.00 kg
长度 0.30 m
直径 4.10 m
跨度 29.00 m
形状 Box + pan
制造商 SPXS
平台类型 Starlink V2MD
阶段状态 In Orbit
所有者/国家 SPXS/US

Most Searched